Location: Bílinka
(49.3579°N, 14.3767°E)
Time: 10:36:48
(UTC+00:00)

FENGYUN 1C DEB - Pass Details

Date: 01 March 2024
Orbit: 850 x 890 km, 98.8° (Epoch: 12 April)

Event Time Altitude Azimuth Distance (km) Brightness Sun altitude
Rises 18:10:41 0° 172° (S) 3,410 ? -14.6°
Reaches altitude 10° 18:13:04 10° 176° (S) 2,482 ? -14.9°
Maximum altitude 18:18:32 65° 258° (WSW) 948 ? -15.8°
Drops below altitude 10° 18:24:06 10° 340° (NNW) 2,523 ? -16.7°
Sets 18:26:32 0° 343° (NNW) 3,472 ? -17.1°
